Погода в Торбе

Турция     37°04′28″N   27°27′25″E
темп.,
°C
ветер,
м/с
пор.,
м/с
влажн.,
%
обл.,
%
осадки,
мм/ч
давл.,
гПа
погр.,
м
21 апреля, ср
ср2100:00+13сз346831 0.0 1017275
03:00+13сз34701 0.0 1017237
06:00+12с22750 0.0 1017123
09:00+15сз22625 0.0 1018306
12:00+17з4451100 0.0 1019832
15:00+18зсз55500 0.0 1018805
18:00+17сз66540 0.0 1018660
21:00+14сз456869 0.0 1019324
22 апреля, чт
чт2200:00+14сз35715 0.0 1020265
03:00+14сз34735 0.0 1020172
06:00+12ссз34750 0.0 1019135
09:00+15ссз34570 0.0 1021316
12:00+19сз45470 0.0 1021378
15:00+20зсз67435 0.0 1020574
18:00+19зсз68455 0.0 1019351
21:00+15сз466738 0.0 1020157
23 апреля, пт
пт2300:00+15сз346260 0.0 1020102
03:00+15сз3459100 0.0 1019119
06:00+14ссз236267 0.0 101894
09:00+17ссз22472 0.0 1019195
12:00+20зсз33395 0.0 1019348
15:00+21зсз4542100 0.0 1019358
18:00+20сз3445100 0.0 1018148
21:00+16ссз3462100 0.0 101851
24 апреля, сб
сб2400:00+17ссз33655 0.0 101855
03:00+16с3361100 0.0 101652
06:00+16с3458100 0.0 101564
09:00+19с3453100 0.0 101588
12:00+22сз2248100 0.0 1015263
15:00+22с2350100 0.0 1014147
18:00+22ссз3352100 0.0 1012117
21:00+20ссз3361100 0.0 101320
25 апреля, вс
вс2500:00+19в1264100 0.0 101212
03:00+19в6961100 0.0 1008131
06:00+18с2370100 0.0 100929
09:00+20в2263100 0.0 100959
12:00+21ююв24600 0.0 1009495
15:00+21зюз12610 0.0 1008472
18:00+21зсз44610 0.0 1008311
21:00+18сз57770 0.0 1009153